Waarnemingen

Advertentie
Mijn weer
Isle Of Man/Ronaldsway, Groot Brittannië (3204): temperatuur & dauwpunt: 15.10.2017 05:00:00 - 21.10.2017 05:00:00 (BST)Isle Of Man/Ronaldsway, Groot Brittannië (3204): temperatuur -20cm & temperatuur -100cm: 15.10.2017 05:00:00 - 21.10.2017 05:00:00 (BST)Isle Of Man/Ronaldsway, Groot Brittannië (3204): windsnelheid & windstoten: 15.10.2017 05:00:00 - 21.10.2017 05:00:00 (BST)Isle Of Man/Ronaldsway, Groot Brittannië (3204): windrichting: 15.10.2017 05:00:00 - 21.10.2017 05:00:00 (BST)Isle Of Man/Ronaldsway, Groot Brittannië (3204): luchtdruk: 15.10.2017 05:00:00 - 21.10.2017 05:00:00 (BST)Isle Of Man/Ronaldsway, Groot Brittannië (3204): zicht: 15.10.2017 05:00:00 - 21.10.2017 05:00:00 (BST)Isle Of Man/Ronaldsway, Groot Brittannië (3204): Zonneschijnduur: 15.10.2017 05:00:00 - 21.10.2017 05:00:00 (BST)Isle Of Man/Ronaldsway, Groot Brittannië (3204): neerslag: 15.10.2017 05:00:00 - 21.10.2017 05:00:00 (BST)
Datum & Tijd tt [°C] td [°C] tt -20cm [°C] tt -100cm [°C] ff [km/u] ff [kn] fx [km/u] fx [kn] dd ppp [hPa] vv [km] sd [min] rr [mm]
21.10.2017 05:00:00 13,3 9,3 - - 52 28 74 40 Z 989,2 10 0 -
21.10.2017 04:00:00 13,5 9,2 - - 44 24 74 40 Z 990,6 10 0 -
21.10.2017 03:00:00 13,6 10,4 - - 46 25 65 35 Z 991,3 10 0 -
21.10.2017 02:00:00 13,2 10,5 - - 42 23 59 32 Z 992,0 10 0 -
21.10.2017 01:00:00 13,9 12,3 - - 39 21 52 28 Z 992,6 10 - -
21.10.2017 00:00:00 13,0 11,6 - - 41 22 63 34 ZO 993,8 10 0 -
20.10.2017 23:00:00 12,1 10,9 - - 44 24 61 33 ZO 994,4 6 0 -
20.10.2017 22:00:00 11,3 10,3 - - 48 26 61 33 ZO 995,6 3,5 0 -
20.10.2017 21:00:00 11,4 9,4 - - 44 24 55 30 OZO 997,3 4,0 0 1,4
20.10.2017 20:00:00 11,3 8,9 - - 34 18 48 26 OZO 998,8 8 0 1,6
20.10.2017 19:00:00 11,6 7,5 - - 35 19 48 26 ZZO 1000,0 10 0 0,2
20.10.2017 18:00:00 11,3 7,8 - - 31 17 - - Z 1001,1 10 0 0,0
20.10.2017 17:00:00 11,6 5,9 - - 28 15 - - Z 1002,0 10 0 0,0
20.10.2017 16:00:00 11,7 7,1 - - 28 15 - - Z 1002,4 10 0 0,0
20.10.2017 15:00:00 11,8 8,6 - - 21 11 - - ZZW 1002,5 10 0 0,0
20.10.2017 14:00:00 12,2 8,8 - - 11 6 - - ZW 1002,8 10 0 0,0
20.10.2017 13:00:00 11,9 8,9 - - 15 8 - - WZW 1002,7 10 6 0,0
20.10.2017 12:00:00 11,9 8,9 - - 18 10 - - WNW 1002,5 10 6 0,0
20.10.2017 11:00:00 12,1 9,2 - - 21 11 - - WNW 1002,4 10 42 0,0
20.10.2017 10:00:00 11,6 9,1 13,2 13,2 28 15 - - WNW 1001,5 10 6 0,0
20.10.2017 09:00:00 11,3 9,1 - - 31 17 - - WNW 1000,6 10 0 0,0
20.10.2017 08:00:00 11,9 9,6 - - 31 17 48 26 WNW 999,5 10 0 0,0
20.10.2017 07:00:00 12,0 10,1 - - 28 15 46 25 NW 998,1 - 0 0,0
20.10.2017 06:00:00 12,1 10,2 - - 31 17 52 28 NW 997,0 10 0 0,0
20.10.2017 05:00:00 12,8 11,2 - - 24 13 - - NNW 996,1 10 0 0,0
20.10.2017 04:00:00 13,2 12,2 - - 11 6 - - WNW 994,8 10 0 0,0
20.10.2017 03:00:00 12,9 12,1 - - 5 3 - - NNW 994,1 - 0 0,0
20.10.2017 02:00:00 13,1 12,6 - - 5 3 - - N 994,1 10 0 0,2
20.10.2017 01:00:00 13,0 12,6 - - 4 2 - - O 993,8 5 - 1,4
20.10.2017 00:00:00 13,1 12,6 - - 13 7 - - ZO 993,6 7 0 4,4
19.10.2017 23:00:00 13,0 12,4 - - 24 13 - - ZO 993,6 3,0 0 5,6
19.10.2017 22:00:00 13,2 12,4 - - 26 14 - - OZO 993,7 4,0 0 4,0
19.10.2017 21:00:00 13,0 12,2 - - 24 13 - - OZO 993,8 2,5 0 2,0
19.10.2017 20:00:00 13,7 12,9 - - 34 18 - - OZO 993,6 10 0 0,0
19.10.2017 19:00:00 13,5 12,8 - - 34 18 - - OZO 994,5 7 0 0,2
19.10.2017 18:00:00 13,4 12,4 - - 34 18 - - OZO 995,2 8 0 0,0
19.10.2017 17:00:00 13,3 11,9 - - 31 17 46 25 OZO 995,6 7 0 0,0
19.10.2017 16:00:00 13,2 11,7 - - 34 18 52 28 OZO 996,4 8 0 0,0
19.10.2017 15:00:00 13,0 11,6 - - 41 22 52 28 OZO 997,4 8 0 0,0
19.10.2017 14:00:00 13,4 11,7 - - 35 19 48 26 OZO 998,3 10 0 0,0
19.10.2017 13:00:00 13,8 12,0 - - 31 17 - - OZO 999,2 10 0 0,0
19.10.2017 12:00:00 13,9 11,8 - - 28 15 - - ZO 1000,2 10 0 0,0
19.10.2017 11:00:00 14,1 11,5 - - 28 15 - - ZO 1000,7 10 0 0,0
19.10.2017 10:00:00 14,0 12,0 13,0 13,2 28 15 - - ZO 1001,0 10 0 0,0
19.10.2017 09:00:00 13,9 11,5 - - 24 13 - - ZO 1001,5 10 0 0,0
19.10.2017 08:00:00 13,7 11,9 - - 22 12 - - ZO 1001,6 10 0 0,0
19.10.2017 07:00:00 13,6 11,8 - - 28 15 - - ZZO 1001,9 10 0 0,0
19.10.2017 06:00:00 13,4 11,9 - - 28 15 - - Z 1002,5 10 0 0,0
19.10.2017 05:00:00 13,5 12,1 - - 26 14 - - Z 1003,1 10 0 0,0
19.10.2017 04:00:00 13,7 12,0 - - 29 16 - - ZZO 1003,5 8 0 0,0
19.10.2017 03:00:00 13,3 11,9 - - 28 15 - - ZZO 1004,3 8 0 0,0
19.10.2017 02:00:00 13,3 11,6 - - 28 15 - - ZO 1004,9 10 0 0,0
19.10.2017 01:00:00 13,3 11,5 - - 28 15 - - ZO 1005,2 10 - 0,0
19.10.2017 00:00:00 13,2 11,4 - - 28 15 - - ZO 1005,6 10 0 0,0
18.10.2017 23:00:00 13,1 11,5 - - 24 13 - - ZO 1006,2 10 0 0,0
18.10.2017 22:00:00 13,1 11,3 - - 24 13 - - ZO 1006,9 10 0 0,0
18.10.2017 21:00:00 12,7 10,9 - - 26 14 - - ZO 1007,4 10 0 0,0
18.10.2017 20:00:00 12,5 10,7 - - 26 14 46 25 ZO 1007,6 10 0 0,0
18.10.2017 19:00:00 12,6 10,5 - - 29 16 - - ZO 1008,0 10 0 0,0
18.10.2017 18:00:00 12,6 9,6 - - 29 16 - - OZO 1008,5 10 0 0,0
18.10.2017 17:00:00 12,5 8,4 - - 28 15 - - OZO 1008,9 10 0 0,0
18.10.2017 16:00:00 12,7 7,3 - - 28 15 - - OZO 1009,4 10 36 0,0
18.10.2017 15:00:00 13,1 7,2 - - 31 17 - - OZO 1010,1 10 30 0,0
18.10.2017 14:00:00 13,3 7,8 - - 28 15 - - OZO 1010,9 10 54 0,0
18.10.2017 13:00:00 13,2 8,8 - - 28 15 - - OZO 1011,4 10 54 0,0
18.10.2017 12:00:00 13,5 9,0 - - 24 13 - - OZO 1011,7 10 60 0,0
18.10.2017 11:00:00 12,9 9,1 - - 22 12 - - OZO 1012,1 10 60 0,0
18.10.2017 10:00:00 12,6 8,9 13,0 13,5 15 8 - - ZO 1012,5 10 12 0,0
18.10.2017 09:00:00 9,1 7,5 - - 11 6 - - NO 1012,8 10 0 0,0
18.10.2017 08:00:00 8,4 7,0 - - 13 7 - - NNO 1012,7 10 0 0,0
18.10.2017 07:00:00 7,4 6,3 - - 9 5 - - NNO 1012,9 10 0 0,0
18.10.2017 06:00:00 6,9 5,6 - - 11 6 - - N 1013,2 10 0 0,0
18.10.2017 05:00:00 7,1 5,8 - - 11 6 - - N 1013,5 - 0 0,0
18.10.2017 04:00:00 6,9 5,7 - - 11 6 - - N 1013,8 10 0 0,0
18.10.2017 03:00:00 6,6 5,5 - - 8 4 - - N 1014,3 10 0 0,0
18.10.2017 02:00:00 7,5 6,2 - - 8 4 - - N 1014,6 10 0 0,0
18.10.2017 01:00:00 7,8 6,6 - - 2 1 - - - 1014,9 10 - 0,0
18.10.2017 00:00:00 8,0 6,5 - - 4 2 - - W 1015,0 10 0 0,0
17.10.2017 23:00:00 9,7 7,8 - - 5 3 - - NW 1015,0 10 0 0,0
17.10.2017 22:00:00 10,6 8,2 - - 5 3 - - - 1015,2 10 0 0,0
17.10.2017 21:00:00 11,3 9,0 - - 15 8 - - W 1014,8 10 0 0,0
17.10.2017 20:00:00 11,9 8,4 - - 11 6 - - W 1015,1 10 0 0,0
17.10.2017 19:00:00 12,5 8,3 - - 15 8 - - W 1015,0 10 0 0,0
17.10.2017 18:00:00 12,9 8,0 - - 16 9 - - W 1014,6 10 0 0,0
17.10.2017 17:00:00 13,1 7,9 - - 26 14 - - W 1014,4 10 0 0,0
17.10.2017 16:00:00 13,5 7,7 - - 31 17 48 26 W 1014,4 10 18 0,0
17.10.2017 15:00:00 13,7 8,0 - - 35 19 52 28 W 1014,2 10 48 0,0
17.10.2017 14:00:00 13,7 8,0 - - 35 19 61 33 WZW 1014,2 10 6 0,0
17.10.2017 13:00:00 13,7 8,2 - - 37 20 63 34 W 1014,1 10 36 0,0
17.10.2017 12:00:00 13,0 7,8 - - 41 22 65 35 WZW 1013,7 10 60 0,0
17.10.2017 11:00:00 12,4 7,7 - - 42 23 67 36 WZW 1013,0 10 48 0,0
17.10.2017 10:00:00 11,9 7,2 13,7 13,5 42 23 70 38 WZW 1012,2 10 18 0,0
17.10.2017 09:00:00 11,5 7,3 - - 46 25 65 35 WZW 1011,5 10 6 0,0
17.10.2017 08:00:00 11,4 7,1 - - 44 24 72 39 WZW 1010,4 10 0 0,0
17.10.2017 07:00:00 11,5 7,3 - - 50 27 72 39 WZW 1009,7 10 0 0,0
17.10.2017 06:00:00 11,8 7,2 - - 50 27 80 43 WZW 1008,8 10 0 0,0
17.10.2017 05:00:00 12,0 7,2 - - 54 29 85 46 WZW 1008,2 10 0 0,0
17.10.2017 04:00:00 12,3 7,4 - - 57 31 85 46 WZW 1007,3 10 0 0,0
17.10.2017 03:00:00 12,8 7,4 - - 54 29 89 48 ZW 1006,8 10 0 0,0
17.10.2017 02:00:00 13,3 8,4 - - 57 31 85 46 ZW 1005,0 10 0 0,0
17.10.2017 01:00:00 13,7 8,7 - - 61 33 87 47 ZW 1003,6 10 - 0,0
17.10.2017 00:00:00 14,1 9,9 - - 57 31 91 49 ZW 1001,8 10 0 0,0
16.10.2017 23:00:00 13,9 10,4 - - 68 37 96 52 ZZW 1000,1 8 0 0,0
16.10.2017 22:00:00 13,9 10,4 - - 76 41 102 55 ZZW 998,1 8 0 0,0
16.10.2017 21:00:00 13,8 10,0 - - 80 43 109 59 ZZW 996,7 7 0 0,0
16.10.2017 20:00:00 13,9 10,8 - - 81 44 119 64 ZZW 996,3 6 0 0,0
16.10.2017 19:00:00 13,4 11,4 - - 83 45 124 67 Z 996,1 4,0 0 0,0
16.10.2017 18:00:00 13,4 11,1 - - 74 40 126 68 Z 996,3 3,5 0 0,0
16.10.2017 17:00:00 14,2 10,5 - - 83 45 124 67 Z 997,6 4,0 0 0,0
16.10.2017 16:00:00 15,2 10,1 - - 81 44 115 62 Z 998,6 6 12 0,0
16.10.2017 15:00:00 15,3 10,1 - - 50 27 87 47 Z 1000,5 10 6 0,0
16.10.2017 14:00:00 15,9 11,4 - - 50 27 78 42 Z 1002,2 10 54 0,0
16.10.2017 13:00:00 16,9 12,3 - - 57 31 78 42 Z 1003,1 10 36 0,0
16.10.2017 12:00:00 15,3 14,1 - - 37 20 54 29 OZO 1003,6 7 0 0,0
16.10.2017 11:00:00 14,8 13,5 - - 34 18 55 30 O 1004,7 7 0 0,0
16.10.2017 10:00:00 14,3 13,5 13,7 13,5 39 21 54 29 O 1005,4 4,0 0 0,2
16.10.2017 09:00:00 14,0 13,3 - - 41 22 52 28 ONO 1006,5 3,5 0 0,2
16.10.2017 08:00:00 14,1 13,3 - - 26 14 - - ONO 1008,0 4,0 0 0,4
16.10.2017 07:00:00 14,2 13,3 - - 16 9 - - ZO 1011,1 7 0 0,0
16.10.2017 06:00:00 14,1 13,4 - - 21 11 - - O 1009,9 6 0 0,0
16.10.2017 05:00:00 14,1 13,6 - - 11 6 - - OZO 1010,9 4,0 0 0,0
16.10.2017 04:00:00 14,2 13,7 - - 15 8 - - OZO 1011,3 4,0 0 0,0
16.10.2017 03:00:00 14,2 13,7 - - 11 6 - - Z 1012,7 3,0 0 0,0
16.10.2017 02:00:00 14,3 13,8 - - 11 6 - - ZZO 1012,0 3,0 0 0,2
16.10.2017 01:00:00 14,2 13,7 - - 13 7 - - ZZW 1012,6 5 - 0,0
16.10.2017 00:00:00 14,3 13,6 - - 21 11 - - ZW 1012,6 5 0 0,0
15.10.2017 23:00:00 14,5 13,8 - - 16 9 - - ZZW 1012,6 4,0 0 0,2
15.10.2017 22:00:00 14,4 13,8 - - 24 13 - - Z 1012,2 3,5 0 0,6
15.10.2017 21:00:00 14,2 13,9 - - 21 11 - - ZZW 1012,4 2,0 0 0,8
15.10.2017 20:00:00 14,1 13,8 - - 24 13 - - ZZW 1012,3 2,0 0 1,0
15.10.2017 19:00:00 14,2 13,6 - - 28 15 - - ZZW 1012,2 3,0 0 0,8
15.10.2017 18:00:00 14,2 13,6 - - 28 15 - - ZZW 1012,0 2,0 0 0,8
15.10.2017 17:00:00 14,3 13,7 - - 35 19 46 25 ZZW 1011,6 2,5 0 0,4
15.10.2017 16:00:00 14,9 13,4 - - 34 18 48 26 ZZW 1011,5 6 0 0,0
15.10.2017 15:00:00 15,2 13,5 - - 35 19 52 28 ZZW 1011,5 9 0 0,0
15.10.2017 14:00:00 15,4 13,4 - - 39 21 50 27 ZZW 1011,5 9 0 0,0
15.10.2017 13:00:00 15,0 13,1 - - 35 19 61 33 ZZW 1011,9 10 0 0,0
15.10.2017 12:00:00 15,2 13,0 - - 41 22 52 28 ZZW 1011,6 10 0 0,0
15.10.2017 11:00:00 15,0 12,9 - - 31 17 54 29 Z 1011,6 10 0 0,0
15.10.2017 10:00:00 14,8 12,3 13,7 13,2 39 21 50 27 ZZW 1011,5 10 0 0,0
15.10.2017 09:00:00 14,7 11,7 - - 42 23 55 30 ZZW 1011,6 10 0 0,0
15.10.2017 08:00:00 14,6 11,5 - - 41 22 52 28 ZZW 1011,7 10 0 0,0
15.10.2017 07:00:00 14,6 11,3 - - 41 22 54 29 Z 1011,7 10 0 0,0
15.10.2017 06:00:00 14,5 12,0 - - 37 20 48 26 Z 1012,4 10 0 0,0
15.10.2017 05:00:00 14,4 12,6 - - 22 12 - - ZZW 1012,9 10 0 0,0

tt = temperatuur
td = dauwpunt
tt -20cm = temperatuur -20cm
tt -100cm = temperatuur -100cm
ff = windsnelheid
fx = windstoten
dd = windrichting
ppp = luchtdruk
vv = zicht
sd = Zonneschijnduur
rr = neerslag

Weerstations in de omgeving